Regional Weather Roundup
Issued by NWS

Home | Current Version | Previous Version | Text Only | Print | Product List | Glossary Off
Versions: 1 2 3 4 5 6 7 8 9 10 11 12 13 14 15 16 17 18 19 20 21 22 23 24 25 26 27 28 29 30 31 32 33 34 35 36 37 38 39 40 41 42 43 44 45 46 47 48 49 50

000
ASUS45 KABQ 200510
RWRNM
NEW MEXICO REGIONAL WEATHER ROUNDUP
NATIONAL WEATHER SERVICE ALBUQUERQUE NM
1000 PM MST THU JAN 19 2017

NOTE: "FAIR" MEANS FEW OR NO CLOUDS BELOW 12,000 FEET AGL WITH NO
       SIGNIFICANT WEATHER OR OBSTRUCTIONS TO VISION.

      THIS PRODUCT IS RELEASED AS TWO VERSIONS.  ONE VERSION NEAR
      THE TOP OF THE HOUR CONTAINING PRELIMINARY DATA FROM ALBUQUERQUE
      AND OTHER STATIONS.  A FINAL VERSION WITH ADDITIONAL DATA IS
      ISSUED ABOUT 10 MINUTES AFTER THE HOUR.

NMZ501-503-504-510>518-200600-
NORTHWEST PLATEAU/NORTHCENTRAL MOUNTAINS

CITY           SKY/WX    TMP DP  RH WIND       PRES   REMARKS
FARMINGTON     CLOUDY    34  33  96 E5        29.74F WCI  30
LOS ALAMOS     CLOUDY    33  28  80 SE3       29.77F
SANTA FE       CLOUDY    35  29  78 NW5       29.75F WCI  31
TAOS           CLOUDY    30  21  69 SW8       29.74S WCI  23
ANGEL FIRE     LGT SNOW  27  24  89 CALM      29.69F

$$
NMZ402-403-502-505>509-200600-
WESTCENTRAL MOUNTAINS/SOUTHWEST MOUNTAINS

CITY           SKY/WX    TMP DP  RH WIND       PRES   REMARKS
GALLUP         CLOUDY    33  30  88 SW15      29.81F WCI  23
GRANTS         MOCLDY    35  30  80 CALM      29.82S
SILVER CITY    FAIR      35  32  92 NW8       29.90S WCI  28

$$
NMZ407-409-411-412-200600-
SOUTHERN DESERTS

CITY           SKY/WX    TMP DP  RH WIND       PRES   REMARKS
DEMING         FAIR      40  34  79 W8        29.90S WCI  34
LAS CRUCES     FAIR      40  32  73 CALM      29.91S
HOLLOMAN AFB   FAIR      44  33  66 SE5       29.88R
ALAMOGORDO     FAIR      39  32  75 SE8       29.85F WCI  34
T OR C         FAIR      41  32  70 S6        29.82F

$$
NMZ519>523-200600-
CENTRAL VALLEYS/CENTRAL HIGHLANDS

CITY           SKY/WX    TMP DP  RH WIND       PRES   REMARKS
ALBUQUERQUE    MOCLDY    38  34  85 S5        29.79F WCI  34
DOUBLE EAGLE   MOCLDY    34  32  93 CALM      29.80F
MORIARTY ARPT  MOCLDY    36  30  79 W9        29.78F WCI  29
CLINES CORNERS NOT AVBL
BELEN          FAIR      37  31  78 W3        29.81S
SOCORRO        FAIR      40  32  72 CALM      29.79S

$$
NMZ524>526-539-540-200600-
SOUTHCENTRAL MOUNTAINS

CITY           SKY/WX    TMP DP  RH WIND       PRES   REMARKS
RUIDOSO        FAIR      37  27  65 W17G30    29.80S WCI  28

$$
NMZ527>531-200600-
NORTHEAST HIGHLANDS/NORTHEAST PLAINS

CITY           SKY/WX    TMP DP  RH WIND       PRES   REMARKS
LAS VEGAS      CLOUDY    36  24  62 CALM      29.62F
RATON          CLOUDY    42  23  46 W25G31    29.52F
CLAYTON        MOCLDY    38  29  70 CALM      29.50F

$$
NMZ532>537-200600-
EASTCENTRAL PLAINS

CITY           SKY/WX    TMP DP  RH WIND       PRES   REMARKS
TUCUMCARI      FAIR      48  31  51 W23G31    29.50F
CANNON AFB     FAIR      44  33  65 SW16      29.61F
CLOVIS AIRPORT FAIR      46  30  53 W24       29.60F

$$
NMZ028-029-538-200600-
SOUTHEAST PLAINS

CITY           SKY/WX    TMP DP  RH WIND       PRES   REMARKS
ROSWELL        FAIR      48  32  53 SW10      29.72R
ARTESIA        FAIR      48  32  53 SW16      29.75S
CARLSBAD       FAIR      52  31  44 W21       29.75R


$$




USA.gov is the U.S. government's official web portal to all federal, state and local government web resources and services.